Flag for Germany Weather past 2 weeks in Bremen, Bremen, Germany

41 °F

Passing clouds.

Feels Like: 33 °F
Forecast: 38 / 45 °F
Wind: 15 mph from South

Location: Bremen Airport

Current Time: Nov 27, 2015 at 10:54:34 PM

Latest Report: Nov 27, 2015 at 10:20 PM

Visibility: N/A

Pressure: 29.77 "Hg

Humidity: 76%

Dew point: 34 °F

Location of BremenLocation

Historic Weather in Bremen — Graph


Bremen temperature yesterday

Maximum temperature yesterday: 46 °F (at 12:50 PM)
Minimum temperature yesterday: 34 °F (at 12:20 AM)
Average temperature yesterday: 39 °F

Past Weeks' High & Low Weather Summary

High57 °F (Nov 13, 12:20 PM)100% (Nov 15, 1:50 AM)30.21 "Hg (Nov 15, 1:50 AM)
Low28 °F (Nov 22, 12:20 AM)57% (Nov 23, 1:20 PM)29.33 "Hg (Nov 21, 3:20 AM)
Average45 °F87%29.79 "Hg
* Reported Nov 12 9:20 PM — Nov 27 9:20 PM, Bremen, Weather by CustomWeather, © 2015

Note: Actual official high and low records may vary slightly from our data, if they occured in-between our weather recording intervals... More about our weather records


Bremen weather history for previous 24 hours

Time TempWeatherWind HumidityBarometerVisibility
9:20 PM
Fri, Nov 27
41 °FPartly cloudy.14 mph81%29.77 "HgN/A
8:50 PM41 °FPartly cloudy.16 mph76%29.80 "HgN/A
8:20 PM41 °FPassing clouds.16 mph76%29.80 "HgN/A
7:50 PM41 °FPassing clouds.16 mph81%29.83 "HgN/A
7:20 PM41 °FPassing clouds.16 mph81%29.83 "HgN/A
6:50 PM41 °FPassing clouds.15 mph81%29.83 "HgN/A
6:20 PM41 °FPassing clouds.13 mph81%29.86 "HgN/A
5:50 PM41 °FClear.12 mph81%29.86 "Hg10 mi
5:20 PM41 °FClear.10 mph81%29.86 "Hg10 mi
4:50 PM41 °FClear.10 mph81%29.89 "Hg10 mi
4:20 PM41 °FClear.12 mph81%29.89 "Hg10 mi
3:50 PM43 °FSunny.10 mph81%29.89 "Hg10 mi
3:20 PM43 °FSunny.12 mph81%29.92 "Hg10 mi
2:50 PM43 °FPassing clouds.12 mph81%29.92 "HgN/A
2:20 PM43 °FSunny.13 mph87%29.95 "Hg10 mi
1:50 PM43 °FSunny.13 mph81%29.95 "Hg10 mi
1:20 PM43 °FSunny.12 mph81%29.95 "Hg10 mi
12:50 PM43 °FScattered clouds.13 mph81%29.98 "HgN/A
12:20 PM41 °FPassing clouds.13 mph87%29.98 "Hg5 mi
11:50 AM39 °FScattered clouds.12 mph93%30.01 "Hg4 mi
11:20 AM39 °FPartly sunny.10 mph93%30.01 "Hg4 mi
10:50 AM39 °FScattered clouds.13 mph87%30.04 "Hg4 mi
10:20 AM37 °FPartly sunny.8 mph93%30.04 "Hg4 mi
9:50 AM36 °FFog.9 mph100%30.04 "Hg3 mi
9:20 AM36 °FFog.6 mph93%30.04 "Hg2 mi
8:50 AM34 °FFog.7 mph100%30.04 "Hg1 mi
7:50 AM34 °FFog.7 mph93%30.07 "Hg1 mi
7:20 AM34 °FFog.7 mph93%30.07 "Hg1 mi
6:50 AM34 °FClear.7 mph93%30.07 "Hg10 mi
6:20 AM34 °FClear.6 mph93%30.07 "Hg10 mi
5:50 AM34 °FClear.7 mph93%30.07 "Hg10 mi
4:50 AM34 °FClear.7 mph100%30.07 "Hg10 mi
4:20 AM34 °FClear.6 mph100%30.09 "Hg6 mi
3:50 AM34 °FClear.6 mph100%30.09 "Hg6 mi
3:20 AM32 °FFog.5 mph100%30.09 "Hg5 mi
2:50 AM34 °FFog.5 mph100%30.09 "Hg5 mi
2:20 AM34 °FFog.5 mph100%30.12 "Hg5 mi
1:50 AM34 °FFog.5 mph100%30.12 "Hg5 mi
1:20 AM34 °FFog.3 mph93%30.12 "Hg5 mi
12:50 AM34 °FFog.3 mph93%30.12 "Hg6 mi
12:20 AM34 °FFog.2 mph100%30.12 "HgN/A
11:50 PM
Thu, Nov 26
34 °FFog.2 mph100%30.12 "HgN/A
11:20 PM34 °FFog.2 mph100%30.12 "HgN/A
10:50 PM36 °FFog.3 mph100%30.12 "HgN/A
10:20 PM36 °FFog.3 mph100%30.12 "HgN/A
Weather by CustomWeather, © 2015

See weather overviewHow to use our weather pages